FW2617 Weather Reports


time (UTC)temp
F
wind
direction
speed
knots
gust
knots
rain 1hr
in
rain 24hr
in
rain mn
in
humidity
%
barometer
mb
20260904180004 95 171 2.6 7.0 0.00 0.00 0.00 53 1010.9
20260904175403 95 181 3.5 7.8 0.00 0.00 0.00 53 1011.0
20260904174503 94 175 3.5 9.6 0.00 0.00 0.00 54 1011.1
20260904173604 93 181 2.6 7.8 0.00 0.00 0.00 57 1011.2
20260904172704 93 194 4.3 7.8 0.00 0.00 0.00 57 1011.4
20260904171804 92 201 3.5 10.4 0.00 0.00 0.00 59 1011.5
20260904170904 92 175 3.5 11.3 0.00 0.00 0.00 61 1011.5
20260904170004 91 206 3.5 9.6 0.00 0.00 0.00 61 1011.6
20260904165425 91 185 3.5 10.4 0.00 0.00 0.00 61 1011.6
20260904164504 90 170 4.3 10.4 0.00 0.00 0.00 63 1011.7
20260904163604 90 195 3.5 8.7 0.00 0.00 0.00 64 1011.7
20260904162704 89 192 4.3 12.2 0.00 0.00 0.00 65 1011.8
20260904161804 88 199 3.5 7.8 0.00 0.00 0.00 67 1011.8
20260904160904 88 183 4.3 11.3 0.00 0.00 0.00 69 1011.7
20260904160004 87 183 4.3 8.7 0.00 0.00 0.00 70 1011.7
20260904155404 87 185 4.3 10.4 0.00 0.00 0.00 71 1011.7
20260904154504 86 192 5.2 10.4 0.00 0.00 0.00 73 1011.7
20260904153604 85 191 7.0 12.2 0.00 0.00 0.00 74 1011.6
20260904152725 85 193 5.2 12.2 0.00 0.00 0.00 73 1011.6
20260904151803 85 188 6.1 13.0 0.00 0.00 0.00 73 1011.7
20260904150904 85 188 6.1 12.2 0.00 0.00 0.00 75 1011.5
20260904150004 84 176 4.3 11.3 0.00 0.00 0.00 75 1011.6
20260904145404 84 179 5.2 11.3 0.00 0.00 0.00 77 1011.6
20260904144504 83 176 4.3 9.6 0.00 0.00 0.00 80 1011.6
20260904143604 83 177 3.5 8.7 0.00 0.00 0.00 82 1011.8
20260904142704 82 192 3.5 9.6 0.00 0.00 0.00 82 1011.7
20260904141804 82 166 2.6 6.1 0.00 0.00 0.00 84 1011.7
20260904140904 82 158 2.6 7.0 0.00 0.00 0.00 85 1011.6
20260904140004 82 155 2.6 7.8 0.00 0.00 0.00 86 1011.6
20260904135403 81 155 2.6 7.0 0.00 0.00 0.00 86 1011.6
20260904134504 80 158 2.6 7.0 0.00 0.00 0.00 88 1011.5
20260904133603 80 158 1.7 4.3 0.00 0.00 0.00 89 1011.4
20260904132704 79 152 1.7 7.8 0.00 0.00 0.00 90 1011.3
20260904131803 78 154 2.6 7.0 0.00 0.00 0.00 90 1011.3
20260904130904 78 151 2.6 7.0 0.00 0.00 0.00 90 1011.1
20260904130004 78 153 1.7 7.0 0.00 0.00 0.00 90 1011.1
20260904125404 78 161 0.9 4.3 0.00 0.00 0.00 90 1011.0
20260904124504 77 152 0.9 3.5 0.00 0.00 0.00 90 1010.9
20260904123604 77 148 0.9 5.2 0.00 0.00 0.00 90 1010.9
20260904122704 77 154 2.6 7.0 0.00 0.00 0.00 90 1010.8
20260904121804 77 149 2.6 5.2 0.00 0.00 0.00 90 1010.6
20260904120903 77 149 0.9 5.2 0.00 0.00 0.00 90 1010.7
20260904120004 77 142 0.9 4.3 0.00 0.00 0.00 89 1010.6
20260904115404 77 152 0.9 4.3 0.00 0.00 0.00 89 1010.7
20260904114504 77 157 0.9 4.3 0.00 0.00 0.00 89 1010.5
20260904113604 78 159 0.0 0.9 0.00 0.00 0.00 89 1010.5
20260904112704 78 160 0.9 3.5 0.00 0.00 0.00 89 1010.4
20260904111804 78 145 0.9 1.7 0.00 0.00 0.00 88 1010.3
20260904110903 78 155 0.9 4.3 0.00 0.00 0.00 88 1010.5
20260904110004 78 163 0.9 4.3 0.00 0.00 0.00 88 1010.2
20260904105404 78 164 0.9 4.3 0.00 0.00 0.00 88 1010.2
20260904104524 78 160 0.9 3.5 0.00 0.00 0.00 88 1010.1
20260904103625 78 161 1.7 5.2 0.00 0.00 0.00 88 1010.1
20260904102704 78 159 0.9 3.5 0.00 0.00 0.00 88 1010.1
20260904101804 78 170 1.7 5.2 0.00 0.00 0.00 88 1010.0
20260904100904 78 162 1.7 5.2 0.00 0.00 0.00 88 1010.0
20260904100004 78 156 1.7 5.2 0.00 0.00 0.00 88 1010.0
20260904095404 78 162 1.7 5.2 0.00 0.00 0.00 88 1010.1
20260904094504 78 163 1.7 5.2 0.00 0.00 0.00 88 1010.0
20260904093603 78 160 1.7 5.2 0.00 0.00 0.00 88 1009.9
20260904092704 78 159 1.7 4.3 0.00 0.00 0.00 88 1009.9
20260904091804 78 162 1.7 5.2 0.00 0.00 0.00 88 1010.0
20260904090903 78 164 0.9 4.3 0.00 0.00 0.00 88 1009.9
20260904090024 78 163 1.7 5.2 0.00 0.00 0.00 88 1009.8
20260904085404 78 160 1.7 4.3 0.00 0.00 0.00 87 1009.9
20260904084504 78 159 1.7 5.2 0.00 0.00 0.00 87 1009.8
20260904083604 78 162 2.6 6.1 0.00 0.00 0.00 87 1009.8
20260904082704 78 162 2.6 7.0 0.00 0.00 0.00 87 1009.9
20260904081804 78 161 1.7 5.2 0.00 0.00 0.00 87 1009.8
20260904080924 77 162 2.6 6.1 0.00 0.00 0.00 87 1009.8
20260904080004 77 162 2.6 6.1 0.00 0.00 0.00 87 1009.9
20260904075404 77 162 2.6 6.1 0.00 0.00 0.00 87 1009.9
20260904074525 77 157 1.7 5.2 0.00 0.00 0.00 87 1009.9
20260904073625 77 150 1.7 5.2 0.00 0.00 0.00 87 1010.1
20260904072703 77 158 1.7 4.3 0.00 0.00 0.00 86 1010.1
20260904071825 77 153 0.9 4.3 0.00 0.00 0.00 86 1010.2
20260904070904 77 133 0.9 2.6 0.00 0.00 0.00 86 1010.2
20260904070004 77 146 0.9 3.5 0.00 0.00 0.00 86 1010.3
20260904065403 77 146 0.9 2.6 0.00 0.00 0.00 86 1010.2
20260904064504 77 154 0.0 3.5 0.00 0.00 0.00 85 1010.3
20260904063604 77 155 0.9 3.5 0.00 0.00 0.00 85 1010.3
20260904062725 77 156 1.7 4.3 0.00 0.00 0.00 85 1010.2
20260904061804 77 162 2.6 6.1 0.00 0.00 0.00 85 1010.2
20260904060903 77 154 1.7 5.2 0.00 0.00 0.00 84 1010.2
20260904060003 77 155 1.7 3.5 0.00 0.00 0.00 84 1010.3
20260904055404 77 154 1.7 5.2 0.00 0.00 0.00 84 1010.3
20260904054504 77 160 2.6 6.1 0.00 0.00 0.00 83 1010.3
20260904053604 77 163 2.6 7.0 0.00 0.00 0.00 83 1010.2
20260904052704 78 162 2.6 5.2 0.00 0.00 0.00 82 1010.2
20260904051804 78 149 2.6 6.1 0.00 0.00 0.00 81 1010.3
20260904050904 78 153 2.6 6.1 0.00 0.00 0.00 80 1010.3
20260904050025 78 149 1.7 5.2 0.00 0.00 0.00 80 1010.3
20260904045403 78 145 1.7 4.3 0.00 0.00 0.00 79 1010.3
20260904044504 78 145 1.7 4.3 0.00 0.00 0.00 78 1010.2
20260904043603 78 147 0.9 4.3 0.00 0.00 0.00 78 1010.5
20260904042704 79 152 1.7 3.5 0.00 0.00 0.00 77 1010.3
20260904041824 79 149 1.7 5.2 0.00 0.00 0.00 77 1010.2
20260904040904 79 139 2.6 7.0 0.00 0.00 0.00 76 1010.3
20260904040004 79 141 2.6 7.0 0.00 0.00 0.00 76 1010.2
20260904035404 79 142 1.7 5.2 0.00 0.00 0.00 76 1010.3
20260904034504 80 142 2.6 7.0 0.00 0.00 0.00 76 1010.2
20260904033603 80 144 3.5 8.7 0.00 0.00 0.00 76 1010.2
20260904032724 80 146 2.6 7.8 0.00 0.00 0.00 75 1010.2
20260904031803 80 150 1.7 7.8 0.00 0.00 0.00 75 1010.1
20260904030925 80 145 3.5 7.8 0.00 0.00 0.00 74 1010.0
20260904030004 80 148 2.6 7.8 0.00 0.00 0.00 73 1009.9
20260904025404 80 148 2.6 6.1 0.00 0.00 0.00 73 1009.8
20260904024504 81 147 3.5 6.1 0.00 0.00 0.00 73 1009.7
20260904023604 81 148 4.3 8.7 0.00 0.00 0.00 72 1009.5
20260904022703 81 142 4.3 8.7 0.00 0.00 0.00 71 1009.4
20260904021804 81 142 4.3 7.8 0.00 0.00 0.00 70 1009.3
20260904020903 82 144 3.5 8.7 0.00 0.00 0.00 70 1009.2
20260904020025 82 144 3.5 9.6 0.00 0.00 0.00 69 1009.1
20260904015424 82 143 3.5 10.4 0.00 0.00 0.00 69 1008.9
20260904014503 82 141 3.5 10.4 0.00 0.00 0.00 69 1008.7
20260904013604 83 145 4.3 10.4 0.00 0.00 0.00 69 1008.6
20260904012725 83 147 4.3 9.6 0.00 0.00 0.00 68 1008.4
20260904011825 83 148 5.2 14.8 0.00 0.00 0.00 68 1008.3
20260904010924 83 144 4.3 10.4 0.00 0.00 0.00 68 1008.3
20260904010004 84 142 5.2 10.4 0.00 0.00 0.00 68 1008.3
20260904005404 84 143 4.3 13.0 0.00 0.00 0.00 67 1008.4
20260904004504 84 146 4.3 9.6 0.00 0.00 0.00 66 1008.4
20260904003604 85 154 5.2 10.4 0.00 0.00 0.00 64 1008.4
20260904002704 86 154 4.3 10.4 0.00 0.00 0.00 62 1008.4
20260904001825 86 150 4.3 11.3 0.00 0.00 0.00 61 1008.3
20260904000904 87 155 4.3 11.3 0.00 0.00 0.00 60 1008.2
20260904000004 88 150 4.3 12.2 0.00 0.00 0.00 61 1008.1
20260903235403 88 154 5.2 13.0 0.00 0.00 0.00 61 1008.0
20260903234503 89 142 5.2 13.0 0.00 0.00 0.00 61 1007.9
20260903233603 90 148 4.3 10.4 0.00 0.00 0.00 61 1007.8
20260903232703 90 145 4.3 10.4 0.00 0.00 0.00 61 1007.7
20260903231803 90 140 4.3 13.9 0.00 0.00 0.00 61 1007.8
20260903230903 90 141 4.3 10.4 0.00 0.00 0.00 62 1007.7
20260903230003 90 147 5.2 10.4 0.00 0.00 0.00 61 1007.7
20260903225424 90 145 4.3 9.6 0.00 0.00 0.00 61 1007.6
20260903224524 90 143 3.5 9.6 0.00 0.00 0.00 61 1007.5
20260903223603 91 145 3.5 8.7 0.00 0.00 0.00 61 1007.5
20260903222703 91 139 4.3 10.4 0.00 0.00 0.00 60 1007.6
20260903221804 92 136 4.3 11.3 0.00 0.00 0.00 59 1007.6
20260903220903 93 139 5.2 13.9 0.00 0.00 0.00 60 1007.6
20260903220003 93 139 4.3 13.9 0.00 0.00 0.00 61 1007.6
20260903215403 92 140 4.3 12.2 0.00 0.00 0.00 62 1007.6
20260903214525 92 142 5.2 12.2 0.00 0.00 0.00 61 1007.6
20260903213603 92 144 4.3 8.7 0.00 0.00 0.00 62 1007.7
20260903212703 91 150 5.2 10.4 0.00 0.00 0.00 64 1007.7
20260903211803 91 142 4.3 9.6 0.00 0.00 0.00 63 1007.8
20260903210904 91 145 4.3 10.4 0.00 0.00 0.00 64 1007.8
20260903210004 90 151 4.3 10.4 0.00 0.00 0.00 66 1008.0
20260903205425 90 151 5.2 10.4 0.00 0.00 0.00 65 1008.0
20260903204525 90 145 6.1 10.4 0.00 0.00 0.00 66 1008.1
20260903203603 89 152 4.3 11.3 0.00 0.00 0.00 68 1008.3
20260903202704 89 154 5.2 12.2 0.00 0.00 0.00 68 1008.3
20260903201803 88 151 3.5 11.3 0.00 0.00 0.00 69 1008.4
20260903200904 87 160 6.1 14.8 0.00 0.00 0.00 71 1008.4
20260903200004 87 148 6.1 14.8 0.00 0.00 0.00 70 1008.5
20260903195424 87 151 6.1 13.9 0.00 0.00 0.00 70 1008.6
20260903194503 87 157 5.2 12.2 0.00 0.00 0.00 71 1008.7
20260903193603 87 154 6.1 13.9 0.00 0.00 0.00 71 1008.8
20260903192703 87 159 6.1 14.8 0.00 0.00 0.00 71 1008.9
20260903191804 87 165 5.2 12.2 0.00 0.00 0.00 71 1009.1
20260903190904 87 162 6.1 16.5 0.00 0.00 0.00 73 1009.3
20260903190003 86 168 6.1 13.0 0.00 0.00 0.00 73 1009.4
20260903185403 86 164 7.0 15.6 0.00 0.00 0.00 73 1009.5
20260903184503 86 157 7.0 15.6 0.00 0.00 0.00 73 1009.6
20260903183603 86 154 7.0 14.8 0.00 0.00 0.00 74 1009.7
20260903182725 85 161 6.1 16.5 0.00 0.00 0.00 75 1009.9
20260903181803 85 164 6.1 13.9 0.00 0.00 0.00 76 1010.1
20260903180904 84 157 6.1 12.2 0.00 0.00 0.00 76 1010.1